#timestamp,LO_Frequency,Hit,StdDev 
1514311215.5,286047003.5,N
1514311235.3,286047005.8,Y
1514311255.1,286047004.2,P
1514311275.9,286047003.8,N
1514311295.7,286047004.4,N
1514311315.6,286047001.7,N
1514311335.4,286047004.4,N
1514311355.2,286047002.7,N
1514311375.1,286047000.2,N
1514311376.0,286047000.2,N
1514311395.8,286046999.3,N
1514311415.7,286046998.6,N
1514311435.5,286046998.4,N
1514311455.3,286046998.9,N
1514311475.2,286046996.6,N
1514311495.0,286046996.8,N
1514311495.9,286046996.8,N
1514311515.7,286046997.6,N
1514311535.6,286046997.8,N
1514311555.4,286046998.0,N
1514311575.3,286046993.4,N
1514311595.1,286046995.3,N
1514311596.0,286046995.3,N
1514311615.8,286046997.6,N
1514311635.7,286046996.5,N
1514311655.5,286046999.3,N
1514311675.4,286046997.7,N
1514311695.2,286046997.0,N
1514311715.0,286046995.3,N
1514311715.9,286046995.3,N
1514311735.8,286046997.8,N
1514311755.6,286046997.1,N
1514311775.4,286046997.5,N
1514311795.3,286046999.6,N
1514311815.1,286046997.5,N
1514311835.9,286046997.0,N
1514311855.7,286046996.6,N
1514311875.5,286046994.9,N
1514311895.4,286046995.6,N
1514311915.2,286046997.1,N
1514311935.0,286046995.0,Y
1514311966.0,286046997.0,E
1514311975.9,286046999.1,N
1514311995.7,286047000.0,P
1514312015.6,286046998.7,N
1514312035.4,286046999.5,N
1514312055.3,286046998.0,Y
1514312075.1,286046997.5,P
1514312076.0,286046997.5,N
1514312095.8,286046996.9,P
1514312115.7,286046999.2,N
1514312135.5,286046996.7,Y
1514312155.4,286047000.4,P
1514312175.2,286047001.9,N
1514312195.0,286047004.2,N
1514312195.9,286047004.2,N
1514312215.8,286047002.4,N
1514312265.6,286047004.0,E
1514312275.6,286047001.5,N
1514312295.4,286046998.3,P
1514312315.2,286047000.7,N
1514312335.1,286046998.7,N
1514312336.0,286046998.7,N
1514312355.8,286046996.9,N
1514312375.7,286046997.6,N
1514312395.5,286046999.0,N
1514312415.3,286047001.1,N
1514312435.2,286047000.1,N
1514312455.9,286047002.7,N
1514312475.7,286047002.7,N
1514312495.6,286047000.0,N
1514312515.4,286047000.5,N
1514312535.3,286046998.2,N
1514312555.1,286047002.1,N
1514312556.0,286047002.1,N
1514312575.8,286047002.5,N
1514312595.7,286046999.7,N
1514312615.5,286046998.5,N
1514312635.3,286046998.9,N
1514312655.2,286046997.0,N
1514312675.0,286046997.8,N
1514312675.9,286046997.8,N
1514312695.8,286046995.5,N
1514312715.6,286046993.4,Y
1514312735.4,286046993.7,P
1514312755.3,286046999.4,N
1514312775.1,286046997.2,N
1514312795.9,286046996.1,N
1514312815.7,286046996.1,N
1514312835.5,286046995.0,N
1514312855.4,286046996.7,N
1514312875.2,286047000.9,N
1514312895.0,286047001.9,N
1514312895.9,286047001.9,N
1514312915.8,286047000.9,N
1514312935.6,286047002.4,N
1514312955.5,286047001.5,N
1514312975.3,286046998.8,N
1514312995.1,286046999.6,N
1514313015.9,286046995.4,N
1514313035.7,286046996.7,N
1514313055.5,286046998.1,N
1514313075.4,286046998.6,N
1514313095.2,286047000.6,N
1514313115.1,286047001.0,N
1514313116.0,286047001.0,N
1514313135.8,286046998.6,N
1514313155.6,286046999.4,N
1514313175.5,286047001.0,N
1514313195.3,286046998.7,N
1514313215.2,286046999.9,N
1514313235.9,286047001.1,N
1514313255.7,286046998.8,N
1514313275.6,286046995.1,N
1514313295.4,286046995.9,N
1514313315.2,286046995.2,N
1514313335.1,286046995.8,N
1514313336.0,286046995.8,N
1514313355.8,286046995.5,N
1514313375.7,286046997.3,N
1514313395.5,286046996.5,N
1514313415.3,286046997.4,N
1514313435.2,286046999.3,N
1514313455.0,286046998.8,N
1514313455.9,286046998.8,N
1514313475.8,286047000.9,N
1514313495.6,286047002.0,N
1514313515.4,286047002.6,N
1514313535.3,286047004.1,N
1514313555.1,286047003.8,N
1514313575.8,286047004.3,N
1514313595.7,286047003.5,N
1514313615.5,286047005.8,N
1514313635.4,286047006.0,N
1514313655.2,286047003.3,N
1514313675.0,286047004.0,N
1514313675.9,286047004.0,N
1514313695.8,286047001.4,N
1514313715.6,286047002.9,N
1514313735.4,286047004.8,N
1514313755.3,286047006.2,N
1514313775.1,286047008.6,N
1514313795.9,286047007.0,N
1514313815.7,286047007.0,N
1514313835.5,286047010.2,N
1514313855.4,286047010.1,N
1514313875.2,286047008.3,N
1514313895.1,286047008.8,N
1514313896.0,286047008.8,N
1514313915.8,286047006.5,N
1514313935.6,286047006.3,N
1514313955.5,286047005.0,N
1514313975.3,286047004.8,N
1514313995.1,286047007.6,N
1514314015.9,286047008.8,Y
1514314035.7,286047004.0,P
1514314055.6,286046998.3,N
1514314075.4,286046999.5,N
1514314095.2,286046996.5,N
1514314115.1,286046996.9,N
1514314116.0,286046996.9,N
1514314135.8,286046999.1,N
1514314155.7,286046996.6,N
1514314175.5,286046999.6,N
1514314195.3,286046997.1,N
1514314215.2,286046996.5,N
1514314235.0,286047000.5,N
1514314235.9,286047000.5,N
1514314255.7,286047000.7,N
1514314275.6,286046999.1,N
1514314295.4,286047000.6,N
1514314315.3,286046998.6,N
1514314335.1,286047000.9,N
1514314355.8,286047000.6,N
1514314375.7,286047000.8,N
1514314395.5,286047002.4,N
1514314415.4,286047002.2,N
1514314435.2,286047004.4,N
1514314455.0,286047001.7,N
1514314455.9,286047001.7,N
1514314475.8,286047002.1,N
1514314495.6,286047001.8,N
1514314515.5,286047002.6,N
1514314535.3,286047000.6,N
1514314555.1,286047001.1,N
1514314575.9,286047002.8,N
1514314595.7,286046999.9,N
1514314615.5,286046999.3,N
1514314635.4,286046999.1,N
1514314655.2,286047000.2,N
1514314675.1,286046998.1,N
1514314676.0,286046998.1,N
1514314695.8,286047000.0,N
1514314715.6,286046998.5,N
1514314735.5,286047000.7,N
1514314755.3,286046999.9,N
1514314775.2,286047001.2,N
1514314795.9,286047001.9,N
